User: anonymous   Login
Location: Unspecified
(0.0000°N, 0.0000°E)
Time: 13:40:05
(UTC+00:00)
Language:

Tubsat B - Orbit

View from above orbital plane
View from above orbital plane
View from above satellite
View from above satellite

Ground track
Ground track

The orbit data is extracted from the following two-line orbital elements,

1 22970U 94003B   18112.84732462 +.00000171 +00000-0 +41147-3 0  9994
2 22970 082.5666 028.7308 0017348 088.9228 330.4159 13.16958938165081
Epoch (UTC): 22 April 2018 20:20:08
Eccentricity: 0.0017348
inclination: 82.5666°
perigee height: 1183 km
apogee height: 1209 km
right ascension of ascending node: 28.7308°
argument of perigee: 88.9228°
revolutions per day: 13.16958938
mean anomaly at epoch: 330.4159°
orbit number at epoch: 16508

The dashed part of the orbit path shows where the satellite is in the earth's shadow,  

DLR